Regional Weather Roundup
Issued by NWS

Home | Current Version | Previous Version | Text Only | Print | Product List | Glossary Off
Versions: 1 2 3 4 5 6 7 8 9 10 11 12 13 14 15 16 17 18 19 20 21 22 23 24 25 26 27 28 29 30 31 32 33 34 35 36 37 38 39 40 41 42 43 44 45 46 47 48 49 50

754
ASUS45 KABQ 160001
RWRNM
NEW MEXICO REGIONAL WEATHER ROUNDUP
NATIONAL WEATHER SERVICE ALBUQUERQUE NM
500 PM MST SUN JAN 15 2017

NOTE: "FAIR" MEANS FEW OR NO CLOUDS BELOW 12,000 FEET AGL WITH NO
       SIGNIFICANT WEATHER OR OBSTRUCTIONS TO VISION.

      THIS PRODUCT IS RELEASED AS TWO VERSIONS.  ONE VERSION NEAR
      THE TOP OF THE HOUR CONTAINING PRELIMINARY DATA FROM ALBUQUERQUE
      AND OTHER STATIONS.  A FINAL VERSION WITH ADDITIONAL DATA IS
      ISSUED ABOUT 10 MINUTES AFTER THE HOUR.

NMZ501-503-504-510>518-160100-
NORTHWEST PLATEAU/NORTHCENTRAL MOUNTAINS

CITY           SKY/WX    TMP DP  RH WIND       PRES   REMARKS
FARMINGTON     LGT RAIN  40  37  89 W18       29.85S WCI  31
6HR MIN TEMP:  40; 6HR MAX TEMP:  45; 6HR PCP: TRACE;

LOS ALAMOS     FOG       35  35 100 S3        29.87R VSB<1/4
SANTA FE       LGT RAIN  37  36  96 SW8       29.85R FOG     WCI  31
6HR MIN TEMP:  35; 6HR MAX TEMP:  39; 6HR PCP:  0.10;

TAOS           CLOUDY    36  27  69 N6        29.83S WCI  31
ANGEL FIRE     MOCLDY    31  28  87 N9        29.85F WCI  23

$$
NMZ402-403-502-505>509-160100-
WESTCENTRAL MOUNTAINS/SOUTHWEST MOUNTAINS

CITY           SKY/WX    TMP DP  RH WIND       PRES   REMARKS
GALLUP         CLOUDY    42  34  73 W10       29.90R
6HR MIN TEMP:  38; 6HR MAX TEMP:  43; 6HR PCP:  0.10;

GRANTS         DRIZZLE   41  37  84 NW8       29.88R
SILVER CITY    CLOUDY    43  38  82 W18G26    29.94R

$$
NMZ407-409-411-412-160100-
SOUTHERN DESERTS

CITY           SKY/WX    TMP DP  RH WIND       PRES   REMARKS
DEMING         CLOUDY    46  40  79 W18G29    29.94R
6HR MIN TEMP:  40; 6HR MAX TEMP:  47; 6HR PCP:  0.03;

LAS CRUCES     CLOUDY    45  41  86 W16G23    29.93R
HOLLOMAN AFB   LGT RAIN  45  44  97 CALM      29.93R
ALAMOGORDO     LGT RAIN  43  41  93 CALM      29.91R
T OR C         CLOUDY    44  39  82 CALM      29.87R
6HR MIN TEMP:  38; 6HR MAX TEMP:  44; 6HR PCP:  0.05;


$$
NMZ519>523-160100-
CENTRAL VALLEYS/CENTRAL HIGHLANDS

CITY           SKY/WX    TMP DP  RH WIND       PRES   REMARKS
ALBUQUERQUE    CLOUDY    42  35  76 E5        29.86R
6HR MIN TEMP:  39; 6HR MAX TEMP:  43; 6HR PCP:  0.07;

DOUBLE EAGLE   CLOUDY    39  37  93 S5        29.87R
MORIARTY ARPT  DRIZZLE   35  32  90 S6        29.88S WCI  30
6HR MIN TEMP:  33; 6HR MAX TEMP:  37; 6HR PCP:  0.01;

CLINES CORNERS LGT SNOW  30  29  96 E10       29.87R VSB 1   WCI  21
6HR MIN TEMP:  29; 6HR MAX TEMP:  31; 6HR PCP:  0.04;

BELEN          LGT RAIN  41  37  85 CALM      29.87S
6HR MIN TEMP:  38; 6HR MAX TEMP:  42; 6HR PCP:  0.01;

SOCORRO        RAIN      39  38  96 E3        29.88S
6HR MIN TEMP:  37; 6HR MAX TEMP:  40;


$$
NMZ524>526-539-540-160100-
SOUTHCENTRAL MOUNTAINS

CITY           SKY/WX    TMP DP  RH WIND       PRES   REMARKS
RUIDOSO        LGT RAIN  32  32 100 N3        29.87S

$$
NMZ527>531-160100-
NORTHEAST HIGHLANDS/NORTHEAST PLAINS

CITY           SKY/WX    TMP DP  RH WIND       PRES   REMARKS
LAS VEGAS      FOG       31  30  96 E7        29.87R VSB 1   WCI  24
6HR MIN TEMP:  30; 6HR MAX TEMP:  33; 6HR PCP:  0.14;

RATON          MOCLDY    34  29  82 NE9       29.85F WCI  27
6HR MIN TEMP:  32; 6HR MAX TEMP:  35; 6HR PCP:  0.23;

CLAYTON        MIX PCPN  32  32 100 N14       29.89F WCI  22
6HR MIN TEMP:  31; 6HR MAX TEMP:  33; 6HR PCP:  0.29;


$$
NMZ532>537-160100-
EASTCENTRAL PLAINS

CITY           SKY/WX    TMP DP  RH WIND       PRES   REMARKS
TUCUMCARI      LGT RAIN  34  33  96 NE7       29.89F WCI  28
6HR MIN TEMP:  33; 6HR MAX TEMP:  34; 6HR PCP:  0.21;

CANNON AFB     CLOUDY    35  35 100 N9        29.84F WCI  28
6HR MIN TEMP:  34; 6HR MAX TEMP:  36; 6HR PCP:  0.30;

CLOVIS AIRPORT CLOUDY    34  30  86 N8        29.85S WCI  27

$$
NMZ028-029-538-160100-
SOUTHEAST PLAINS

CITY           SKY/WX    TMP DP  RH WIND       PRES   REMARKS
ROSWELL        CLOUDY    43  37  79 N7        29.87R
6HR MIN TEMP:  39; 6HR MAX TEMP:  44; 6HR PCP:  0.02;

ARTESIA        CLOUDY    43  43 100 N8        29.88R
CARLSBAD       NOT AVBL


$$




USA.gov is the U.S. government's official web portal to all federal, state and local government web resources and services.